owner,sensor,date,latitude,longitude,vertical_datum,wind_speed,wind_to_direction,wind_speed_of_gust,qcFlag 
NDBC,ioos:station:NOAA.NDBC:FWYF1:1,2019-03-01T04:00:00Z,25.5910,-80.0970,43.9,4.1,90.0,4.6,'1111122,1111122,1111122' 
NDBC,ioos:station:NOAA.NDBC:FWYF1:1,2019-03-01T05:00:00Z,25.5910,-80.0970,43.9,2.6,70.0,3.6,'1111122,1111122,1111122' 
NDBC,ioos:station:NOAA.NDBC:FWYF1:1,2019-03-01T06:00:00Z,25.5910,-80.0970,43.9,2.6,60.0,3.1,'1111122,1111122,1111122' 
NDBC,ioos:station:NOAA.NDBC:FWYF1:1,2019-03-01T08:00:00Z,25.5910,-80.0970,43.9,2.6,70.0,3.1,'1111122,1111122,1111122' 
NDBC,ioos:station:NOAA.NDBC:FWYF1:1,2019-03-01T09:00:00Z,25.5910,-80.0970,43.9,3.1,90.0,3.6,'1111122,1111122,1111122' 
NDBC,ioos:station:NOAA.NDBC:FWYF1:1,2019-03-01T10:00:00Z,25.5910,-80.0970,43.9,2.6,40.0,2.6,'1111122,1111122,1111122' 
NDBC,ioos:station:NOAA.NDBC:FWYF1:1,2019-03-01T11:00:00Z,25.5910,-80.0970,43.9,3.1,90.0,3.1,'1111122,1111122,1111122' 
NDBC,ioos:station:NOAA.NDBC:FWYF1:1,2019-03-01T12:00:00Z,25.5910,-80.0970,43.9,1.5,80.0,2.6,'1111122,1111122,1111122' 
NDBC,ioos:station:NOAA.NDBC:FWYF1:1,2019-03-01T14:00:00Z,25.5910,-80.0970,43.9,4.1,80.0,4.1,'1111122,1111122,1111122' 
NDBC,ioos:station:NOAA.NDBC:FWYF1:1,2019-03-01T16:00:00Z,25.5910,-80.0970,43.9,4.6,100.0,4.6,'1111122,1111122,1111122' 
NDBC,ioos:station:NOAA.NDBC:FWYF1:1,2019-03-01T17:00:00Z,25.5910,-80.0970,43.9,4.6,100.0,5.1,'1111122,1111122,1111122' 
NDBC,ioos:station:NOAA.NDBC:FWYF1:1,2019-03-01T18:00:00Z,25.5910,-80.0970,43.9,4.1,100.0,4.6,'1111122,1111122,1111122' 
NDBC,ioos:station:NOAA.NDBC:FWYF1:1,2019-03-01T19:00:00Z,25.5910,-80.0970,43.9,2.1,110.0,2.6,'1111122,1111122,1111122' 
NDBC,ioos:station:NOAA.NDBC:FWYF1:1,2019-03-01T20:00:00Z,25.5910,-80.0970,43.9,1.0,90.0,1.5,'1111122,1111122,1111122' 
NDBC,ioos:station:NOAA.NDBC:FWYF1:1,2019-03-01T21:00:00Z,25.5910,-80.0970,43.9,1.5,80.0,2.1,'1111122,1111122,1111122' 
NDBC,ioos:station:NOAA.NDBC:FWYF1:1,2019-03-01T22:00:00Z,25.5910,-80.0970,43.9,2.1,50.0,3.1,'1111122,1111122,1111122' 
NDBC,ioos:station:NOAA.NDBC:FWYF1:1,2019-03-01T23:00:00Z,25.5910,-80.0970,43.9,2.6,90.0,2.6,'1111122,1111122,1111122' 
NDBC,ioos:station:NOAA.NDBC:FWYF1:1,2019-03-02T00:00:00Z,25.5910,-80.0970,43.9,3.6,70.0,4.1,'1111122,1111122,1111122' 
NDBC,ioos:station:NOAA.NDBC:FWYF1:1,2019-03-02T02:00:00Z,25.5910,-80.0970,43.9,5.1,100.0,5.7,'1111122,1111122,1111122' 
NDBC,ioos:station:NOAA.NDBC:FWYF1:1,2019-03-02T03:00:00Z,25.5910,-80.0970,43.9,6.7,100.0,6.7,'1111122,1111122,1111122' 
NDBC,ioos:station:NOAA.NDBC:FWYF1:1,2019-03-02T04:00:00Z,25.5910,-80.0970,43.9,7.7,110.0,8.2,'1111122,1111122,1111122' 
NDBC,ioos:station:NOAA.NDBC:FWYF1:1,2019-03-02T05:00:00Z,25.5910,-80.0970,43.9,3.6,100.0,4.6,'1111122,1111122,1111122' 
NDBC,ioos:station:NOAA.NDBC:FWYF1:1,2019-03-02T06:00:00Z,25.5910,-80.0970,43.9,3.1,80.0,3.1,'1111122,1111122,1111122' 
NDBC,ioos:station:NOAA.NDBC:FWYF1:1,2019-03-02T07:00:00Z,25.5910,-80.0970,43.9,3.1,60.0,3.6,'1111122,1111122,1111122' 
NDBC,ioos:station:NOAA.NDBC:FWYF1:1,2019-03-02T08:00:00Z,25.5910,-80.0970,43.9,2.1,80.0,2.6,'1111122,1111122,1111122' 
NDBC,ioos:station:NOAA.NDBC:FWYF1:1,2019-03-02T09:00:00Z,25.5910,-80.0970,43.9,3.6,90.0,4.1,'1111122,1111122,1111122' 
NDBC,ioos:station:NOAA.NDBC:FWYF1:1,2019-03-02T10:00:00Z,25.5910,-80.0970,43.9,2.1,90.0,2.6,'1111122,1111122,1111122' 
NDBC,ioos:station:NOAA.NDBC:FWYF1:1,2019-03-02T11:00:00Z,25.5910,-80.0970,43.9,3.6,110.0,4.1,'1111122,1111122,1111122' 
NDBC,ioos:station:NOAA.NDBC:FWYF1:1,2019-03-02T12:00:00Z,25.5910,-80.0970,43.9,3.1,110.0,3.6,'1111122,1111122,1111122' 
NDBC,ioos:station:NOAA.NDBC:FWYF1:1,2019-03-02T13:00:00Z,25.5910,-80.0970,43.9,2.6,100.0,2.6,'1111122,1111122,1111122' 
NDBC,ioos:station:NOAA.NDBC:FWYF1:1,2019-03-02T14:00:00Z,25.5910,-80.0970,43.9,3.6,120.0,4.1,'1111122,1111122,1111122' 
NDBC,ioos:station:NOAA.NDBC:FWYF1:1,2019-03-02T15:00:00Z,25.5910,-80.0970,43.9,3.1,120.0,3.1,'1111122,1111122,1111122' 
NDBC,ioos:station:NOAA.NDBC:FWYF1:1,2019-03-02T16:00:00Z,25.5910,-80.0970,43.9,3.1,120.0,3.1,'1111122,1111122,1111122' 
NDBC,ioos:station:NOAA.NDBC:FWYF1:1,2019-03-02T17:00:00Z,25.5910,-80.0970,43.9,2.6,140.0,3.1,'1111122,1111122,1111122' 
NDBC,ioos:station:NOAA.NDBC:FWYF1:1,2019-03-02T18:00:00Z,25.5910,-80.0970,43.9,2.1,160.0,2.6,'1111122,1111122,1111122' 
NDBC,ioos:station:NOAA.NDBC:FWYF1:1,2019-03-02T19:00:00Z,25.5910,-80.0970,43.9,2.6,150.0,3.1,'1111122,1111122,1111122' 
NDBC,ioos:station:NOAA.NDBC:FWYF1:1,2019-03-02T20:00:00Z,25.5910,-80.0970,43.9,3.6,130.0,4.1,'1111122,1111122,1111122' 
NDBC,ioos:station:NOAA.NDBC:FWYF1:1,2019-03-02T22:00:00Z,25.5910,-80.0970,43.9,3.1,110.0,3.1,'1111122,1111122,1111122' 
NDBC,ioos:station:NOAA.NDBC:FWYF1:1,2019-03-02T23:00:00Z,25.5910,-80.0970,43.9,3.6,110.0,4.1,'1111122,1111122,1111122' 
NDBC,ioos:station:NOAA.NDBC:FWYF1:1,2019-03-03T00:00:00Z,25.5910,-80.0970,43.9,3.6,90.0,3.6,'1111122,1111122,1111122' 
NDBC,ioos:station:NOAA.NDBC:FWYF1:1,2019-03-03T01:00:00Z,25.5910,-80.0970,43.9,5.1,100.0,5.7,'1111122,1111122,1111122' 
NDBC,ioos:station:NOAA.NDBC:FWYF1:1,2019-03-03T03:00:00Z,25.5910,-80.0970,43.9,4.6,100.0,4.6,'1111122,1111122,1111122' 
NDBC,ioos:station:NOAA.NDBC:FWYF1:1,2019-03-03T04:00:00Z,25.5910,-80.0970,43.9,5.7,100.0,6.7,'1111122,1111122,1111122' 
NDBC,ioos:station:NOAA.NDBC:FWYF1:1,2019-03-03T05:00:00Z,25.5910,-80.0970,43.9,5.7,100.0,6.2,'1111122,1111122,1111122' 
NDBC,ioos:station:NOAA.NDBC:FWYF1:1,2019-03-03T06:00:00Z,25.5910,-80.0970,43.9,5.7,100.0,6.2,'1111122,1111122,1111122' 
NDBC,ioos:station:NOAA.NDBC:FWYF1:1,2019-03-03T07:00:00Z,25.5910,-80.0970,43.9,5.7,90.0,6.2,'1111122,1111122,1111122' 
NDBC,ioos:station:NOAA.NDBC:FWYF1:1,2019-03-03T08:00:00Z,25.5910,-80.0970,43.9,5.7,100.0,6.2,'1111122,1111122,1111122' 
NDBC,ioos:station:NOAA.NDBC:FWYF1:1,2019-03-03T09:00:00Z,25.5910,-80.0970,43.9,6.7,100.0,7.2,'1111122,1111122,1111122' 
NDBC,ioos:station:NOAA.NDBC:FWYF1:1,2019-03-03T10:00:00Z,25.5910,-80.0970,43.9,7.7,120.0,8.2,'1111122,1111122,1111122' 
NDBC,ioos:station:NOAA.NDBC:FWYF1:1,2019-03-03T11:00:00Z,25.5910,-80.0970,43.9,6.2,150.0,7.2,'1111122,1111122,1111122' 
NDBC,ioos:station:NOAA.NDBC:FWYF1:1,2019-03-03T12:00:00Z,25.5910,-80.0970,43.9,5.7,140.0,6.2,'1111122,1111122,1111122' 
NDBC,ioos:station:NOAA.NDBC:FWYF1:1,2019-03-03T13:00:00Z,25.5910,-80.0970,43.9,6.7,140.0,7.2,'1111122,1111122,1111122' 
NDBC,ioos:station:NOAA.NDBC:FWYF1:1,2019-03-03T14:00:00Z,25.5910,-80.0970,43.9,6.2,140.0,6.2,'1111122,1111122,1111122' 
NDBC,ioos:station:NOAA.NDBC:FWYF1:1,2019-03-03T15:00:00Z,25.5910,-80.0970,43.9,6.7,140.0,7.2,'1111122,1111122,1111122' 
NDBC,ioos:station:NOAA.NDBC:FWYF1:1,2019-03-03T16:00:00Z,25.5910,-80.0970,43.9,7.7,140.0,7.7,'1111122,1111122,1111122' 
NDBC,ioos:station:NOAA.NDBC:FWYF1:1,2019-03-03T17:00:00Z,25.5910,-80.0970,43.9,7.7,140.0,8.2,'1111122,1111122,1111122' 
NDBC,ioos:station:NOAA.NDBC:FWYF1:1,2019-03-03T19:00:00Z,25.5910,-80.0970,43.9,6.2,160.0,6.7,'1111122,1111122,1111122' 
NDBC,ioos:station:NOAA.NDBC:FWYF1:1,2019-03-03T20:00:00Z,25.5910,-80.0970,43.9,6.2,160.0,6.2,'1111122,1111122,1111122' 
NDBC,ioos:station:NOAA.NDBC:FWYF1:1,2019-03-03T22:00:00Z,25.5910,-80.0970,43.9,6.2,160.0,6.7,'1111122,1111122,1111122' 
NDBC,ioos:station:NOAA.NDBC:FWYF1:1,2019-03-03T23:00:00Z,25.5910,-80.0970,43.9,6.7,180.0,6.7,'1111122,1111122,1111122' 
NDBC,ioos:station:NOAA.NDBC:FWYF1:1,2019-03-04T00:00:00Z,25.5910,-80.0970,43.9,6.7,170.0,7.2,'1111122,1111122,1111122' 
NDBC,ioos:station:NOAA.NDBC:FWYF1:1,2019-03-04T01:00:00Z,25.5910,-80.0970,43.9,6.7,180.0,7.2,'1111122,1111122,1111122' 
NDBC,ioos:station:NOAA.NDBC:FWYF1:1,2019-03-04T03:00:00Z,25.5910,-80.0970,43.9,4.6,200.0,5.1,'1111122,1111122,1111122' 
NDBC,ioos:station:NOAA.NDBC:FWYF1:1,2019-03-04T05:00:00Z,25.5910,-80.0970,43.9,5.1,200.0,5.7,'1111122,1111122,1111122' 
NDBC,ioos:station:NOAA.NDBC:FWYF1:1,2019-03-04T06:00:00Z,25.5910,-80.0970,43.9,6.2,200.0,6.7,'1111122,1111122,1111122' 
NDBC,ioos:station:NOAA.NDBC:FWYF1:1,2019-03-04T07:00:00Z,25.5910,-80.0970,43.9,5.7,210.0,6.2,'1111122,1111122,1111122' 
NDBC,ioos:station:NOAA.NDBC:FWYF1:1,2019-03-04T08:00:00Z,25.5910,-80.0970,43.9,5.7,210.0,6.2,'1111122,1111122,1111122' 
NDBC,ioos:station:NOAA.NDBC:FWYF1:1,2019-03-04T09:00:00Z,25.5910,-80.0970,43.9,5.1,210.0,5.7,'1111122,1111122,1111122' 
NDBC,ioos:station:NOAA.NDBC:FWYF1:1,2019-03-04T10:00:00Z,25.5910,-80.0970,43.9,5.7,200.0,6.7,'1111122,1111122,1111122' 
NDBC,ioos:station:NOAA.NDBC:FWYF1:1,2019-03-04T11:00:00Z,25.5910,-80.0970,43.9,5.7,210.0,6.2,'1111122,1111122,1111122' 
NDBC,ioos:station:NOAA.NDBC:FWYF1:1,2019-03-04T13:00:00Z,25.5910,-80.0970,43.9,6.2,220.0,6.7,'1111122,1111122,1111122' 
NDBC,ioos:station:NOAA.NDBC:FWYF1:1,2019-03-04T15:00:00Z,25.5910,-80.0970,43.9,6.7,220.0,7.2,'1111122,1111122,1111122' 
NDBC,ioos:station:NOAA.NDBC:FWYF1:1,2019-03-04T16:00:00Z,25.5910,-80.0970,43.9,5.7,230.0,5.7,'1111122,1111122,1111122' 
NDBC,ioos:station:NOAA.NDBC:FWYF1:1,2019-03-04T17:00:00Z,25.5910,-80.0970,43.9,5.1,210.0,5.7,'1111122,1111122,1111122' 
NDBC,ioos:station:NOAA.NDBC:FWYF1:1,2019-03-04T18:00:00Z,25.5910,-80.0970,43.9,5.7,170.0,6.2,'1111122,1111122,1111122' 
NDBC,ioos:station:NOAA.NDBC:FWYF1:1,2019-03-04T19:00:00Z,25.5910,-80.0970,43.9,7.2,180.0,7.7,'1111122,1111122,1111122' 
NDBC,ioos:station:NOAA.NDBC:FWYF1:1,2019-03-04T20:00:00Z,25.5910,-80.0970,43.9,8.2,180.0,8.2,'1111122,1111122,1111122' 
NDBC,ioos:station:NOAA.NDBC:FWYF1:1,2019-03-04T21:00:00Z,25.5910,-80.0970,43.9,6.7,270.0,7.2,'1111122,1111122,1111122' 
NDBC,ioos:station:NOAA.NDBC:FWYF1:1,2019-03-04T22:00:00Z,25.5910,-80.0970,43.9,7.7,280.0,8.2,'1111122,1111122,1111122' 
NDBC,ioos:station:NOAA.NDBC:FWYF1:1,2019-03-04T23:00:00Z,25.5910,-80.0970,43.9,7.7,270.0,8.8,'1111122,1111122,1111122' 
NDBC,ioos:station:NOAA.NDBC:FWYF1:1,2019-03-05T00:00:00Z,25.5910,-80.0970,43.9,8.2,270.0,8.8,'1111122,1111122,1111122' 
NDBC,ioos:station:NOAA.NDBC:FWYF1:1,2019-03-05T01:00:00Z,25.5910,-80.0970,43.9,7.7,270.0,8.2,'1111122,1111122,1111122' 
NDBC,ioos:station:NOAA.NDBC:FWYF1:1,2019-03-05T03:00:00Z,25.5910,-80.0970,43.9,6.2,270.0,6.7,'1111122,1111122,1111122' 
NDBC,ioos:station:NOAA.NDBC:FWYF1:1,2019-03-05T04:00:00Z,25.5910,-80.0970,43.9,5.7,270.0,-9999.0,'1111122,1111122,1111122' 
NDBC,ioos:station:NOAA.NDBC:FWYF1:1,2019-03-05T05:00:00Z,25.5910,-80.0970,43.9,4.1,260.0,4.6,'1111122,1111122,1111122' 
NDBC,ioos:station:NOAA.NDBC:FWYF1:1,2019-03-05T06:00:00Z,25.5910,-80.0970,43.9,5.1,260.0,5.7,'1111122,1111122,1111122' 
NDBC,ioos:station:NOAA.NDBC:FWYF1:1,2019-03-05T07:00:00Z,25.5910,-80.0970,43.9,5.1,280.0,5.7,'1111122,1111122,1111122' 
NDBC,ioos:station:NOAA.NDBC:FWYF1:1,2019-03-05T10:00:00Z,25.5910,-80.0970,43.9,3.6,270.0,4.1,'1111122,1111122,1111122' 
NDBC,ioos:station:NOAA.NDBC:FWYF1:1,2019-03-05T12:00:00Z,25.5910,-80.0970,43.9,6.7,280.0,7.2,'1111122,1111122,1111122' 
NDBC,ioos:station:NOAA.NDBC:FWYF1:1,2019-03-05T14:00:00Z,25.5910,-80.0970,43.9,3.6,290.0,4.1,'1111122,1111122,1111122' 
NDBC,ioos:station:NOAA.NDBC:FWYF1:1,2019-03-05T15:00:00Z,25.5910,-80.0970,43.9,2.6,280.0,2.6,'1111122,1111122,1111122' 
NDBC,ioos:station:NOAA.NDBC:FWYF1:1,2019-03-05T16:00:00Z,25.5910,-80.0970,43.9,2.6,270.0,3.1,'1111122,1111122,1111122' 
NDBC,ioos:station:NOAA.NDBC:FWYF1:1,2019-03-05T17:00:00Z,25.5910,-80.0970,43.9,1.5,200.0,2.1,'1111122,1111122,1111122' 
NDBC,ioos:station:NOAA.NDBC:FWYF1:1,2019-03-05T18:00:00Z,25.5910,-80.0970,43.9,3.6,170.0,4.1,'1111122,1111122,1111122' 
NDBC,ioos:station:NOAA.NDBC:FWYF1:1,2019-03-05T19:00:00Z,25.5910,-80.0970,43.9,6.7,170.0,7.2,'1111122,1111122,1111122' 
NDBC,ioos:station:NOAA.NDBC:FWYF1:1,2019-03-05T20:00:00Z,25.5910,-80.0970,43.9,9.8,190.0,10.3,'1111122,1111122,1111122' 
NDBC,ioos:station:NOAA.NDBC:FWYF1:1,2019-03-05T21:00:00Z,25.5910,-80.0970,43.9,10.8,260.0,11.3,'1111122,1111122,1111122' 
NDBC,ioos:station:NOAA.NDBC:FWYF1:1,2019-03-05T23:00:00Z,25.5910,-80.0970,43.9,6.2,330.0,6.7,'1111122,1111122,1111122' 
NDBC,ioos:station:NOAA.NDBC:FWYF1:1,2019-03-06T00:00:00Z,25.5910,-80.0970,43.9,9.3,330.0,9.8,'1111122,1111122,1111122' 
NDBC,ioos:station:NOAA.NDBC:FWYF1:1,2019-03-06T02:00:00Z,25.5910,-80.0970,43.9,7.7,320.0,8.2,'1111122,1111122,1111122' 
NDBC,ioos:station:NOAA.NDBC:FWYF1:1,2019-03-06T04:00:00Z,25.5910,-80.0970,43.9,6.7,340.0,7.2,'1111122,1111122,1111122' 
NDBC,ioos:station:NOAA.NDBC:FWYF1:1,2019-03-06T05:00:00Z,25.5910,-80.0970,43.9,7.7,340.0,8.8,'1111122,1111122,1111122' 
NDBC,ioos:station:NOAA.NDBC:FWYF1:1,2019-03-06T06:00:00Z,25.5910,-80.0970,43.9,8.2,320.0,9.3,'1111122,1111122,1111122' 
NDBC,ioos:station:NOAA.NDBC:FWYF1:1,2019-03-06T08:00:00Z,25.5910,-80.0970,43.9,10.3,350.0,12.9,'1111122,1111122,1111122' 
NDBC,ioos:station:NOAA.NDBC:FWYF1:1,2019-03-06T09:00:00Z,25.5910,-80.0970,43.9,10.8,340.0,12.4,'1111122,1111122,1111122' 
NDBC,ioos:station:NOAA.NDBC:FWYF1:1,2019-03-06T10:00:00Z,25.5910,-80.0970,43.9,9.3,340.0,10.8,'1111122,1111122,1111122' 
NDBC,ioos:station:NOAA.NDBC:FWYF1:1,2019-03-06T11:00:00Z,25.5910,-80.0970,43.9,10.3,340.0,11.3,'1111122,1111122,1111122' 
NDBC,ioos:station:NOAA.NDBC:FWYF1:1,2019-03-06T12:00:00Z,25.5910,-80.0970,43.9,10.3,350.0,11.3,'1111122,1111122,1111122' 
NDBC,ioos:station:NOAA.NDBC:FWYF1:1,2019-03-06T14:00:00Z,25.5910,-80.0970,43.9,10.3,350.0,12.4,'1111122,1111122,1111122' 
NDBC,ioos:station:NOAA.NDBC:FWYF1:1,2019-03-06T15:00:00Z,25.5910,-80.0970,43.9,9.3,350.0,10.3,'1111122,1111122,1111122' 
NDBC,ioos:station:NOAA.NDBC:FWYF1:1,2019-03-06T16:00:00Z,25.5910,-80.0970,43.9,10.3,360.0,11.8,'1111122,1111122,1111122' 
NDBC,ioos:station:NOAA.NDBC:FWYF1:1,2019-03-06T17:00:00Z,25.5910,-80.0970,43.9,11.3,360.0,13.4,'1111122,1111122,1111122' 
NDBC,ioos:station:NOAA.NDBC:FWYF1:1,2019-03-06T18:00:00Z,25.5910,-80.0970,43.9,11.8,360.0,13.4,'1111122,1111122,1111122' 
NDBC,ioos:station:NOAA.NDBC:FWYF1:1,2019-03-06T19:00:00Z,25.5910,-80.0970,43.9,11.8,10.0,13.4,'1111122,1111122,1111122' 
NDBC,ioos:station:NOAA.NDBC:FWYF1:1,2019-03-06T20:00:00Z,25.5910,-80.0970,43.9,9.3,10.0,10.8,'1111122,1111122,1111122' 
NDBC,ioos:station:NOAA.NDBC:FWYF1:1,2019-03-06T21:00:00Z,25.5910,-80.0970,43.9,10.8,20.0,12.4,'1111122,1111122,1111122' 
NDBC,ioos:station:NOAA.NDBC:FWYF1:1,2019-03-06T22:00:00Z,25.5910,-80.0970,43.9,10.3,20.0,12.4,'1111122,1111122,1111122' 
NDBC,ioos:station:NOAA.NDBC:FWYF1:1,2019-03-06T23:00:00Z,25.5910,-80.0970,43.9,10.3,10.0,11.8,'1111122,1111122,1111122' 
NDBC,ioos:station:NOAA.NDBC:FWYF1:1,2019-03-07T00:00:00Z,25.5910,-80.0970,43.9,10.3,10.0,11.8,'1111122,1111122,1111122' 
NDBC,ioos:station:NOAA.NDBC:FWYF1:1,2019-03-07T01:00:00Z,25.5910,-80.0970,43.9,9.3,360.0,11.8,'1111122,1111122,1111122' 
NDBC,ioos:station:NOAA.NDBC:FWYF1:1,2019-03-07T02:00:00Z,25.5910,-80.0970,43.9,9.3,350.0,10.3,'1111122,1111122,1111122' 
NDBC,ioos:station:NOAA.NDBC:FWYF1:1,2019-03-07T03:00:00Z,25.5910,-80.0970,43.9,9.3,350.0,10.3,'1111122,1111122,1111122' 
NDBC,ioos:station:NOAA.NDBC:FWYF1:1,2019-03-07T04:00:00Z,25.5910,-80.0970,43.9,7.7,350.0,9.8,'1111122,1111122,1111122' 
NDBC,ioos:station:NOAA.NDBC:FWYF1:1,2019-03-07T05:00:00Z,25.5910,-80.0970,43.9,8.2,350.0,9.3,'1111122,1111122,1111122' 
NDBC,ioos:station:NOAA.NDBC:FWYF1:1,2019-03-07T06:00:00Z,25.5910,-80.0970,43.9,8.2,350.0,9.3,'1111122,1111122,1111122' 
NDBC,ioos:station:NOAA.NDBC:FWYF1:1,2019-03-07T08:00:00Z,25.5910,-80.0970,43.9,6.7,360.0,7.7,'1111122,1111122,1111122' 
NDBC,ioos:station:NOAA.NDBC:FWYF1:1,2019-03-07T09:00:00Z,25.5910,-80.0970,43.9,7.2,350.0,7.7,'1111122,1111122,1111122' 
NDBC,ioos:station:NOAA.NDBC:FWYF1:1,2019-03-07T10:00:00Z,25.5910,-80.0970,43.9,7.7,350.0,7.7,'1111122,1111122,1111122' 
NDBC,ioos:station:NOAA.NDBC:FWYF1:1,2019-03-07T11:00:00Z,25.5910,-80.0970,43.9,5.7,360.0,7.2,'1111122,1111122,1111122' 
NDBC,ioos:station:NOAA.NDBC:FWYF1:1,2019-03-07T12:00:00Z,25.5910,-80.0970,43.9,6.2,60.0,7.2,'1111122,1111122,1111122' 
NDBC,ioos:station:NOAA.NDBC:FWYF1:1,2019-03-07T13:00:00Z,25.5910,-80.0970,43.9,6.7,50.0,7.7,'1111122,1111122,1111122' 
NDBC,ioos:station:NOAA.NDBC:FWYF1:1,2019-03-07T15:00:00Z,25.5910,-80.0970,43.9,7.2,50.0,7.7,'1111122,1111122,1111122' 
NDBC,ioos:station:NOAA.NDBC:FWYF1:1,2019-03-07T16:00:00Z,25.5910,-80.0970,43.9,7.2,50.0,8.2,'1111122,1111122,1111122' 
NDBC,ioos:station:NOAA.NDBC:FWYF1:1,2019-03-07T17:00:00Z,25.5910,-80.0970,43.9,7.7,50.0,8.2,'1111122,1111122,1111122' 
NDBC,ioos:station:NOAA.NDBC:FWYF1:1,2019-03-07T18:00:00Z,25.5910,-80.0970,43.9,6.7,50.0,7.7,'1111122,1111122,1111122' 
NDBC,ioos:station:NOAA.NDBC:FWYF1:1,2019-03-07T19:00:00Z,25.5910,-80.0970,43.9,6.2,60.0,6.7,'1111122,1111122,1111122' 
NDBC,ioos:station:NOAA.NDBC:FWYF1:1,2019-03-07T20:00:00Z,25.5910,-80.0970,43.9,7.2,60.0,8.2,'1111122,1111122,1111122' 
NDBC,ioos:station:NOAA.NDBC:FWYF1:1,2019-03-07T21:00:00Z,25.5910,-80.0970,43.9,6.7,40.0,7.2,'1111122,1111122,1111122' 
NDBC,ioos:station:NOAA.NDBC:FWYF1:1,2019-03-07T22:00:00Z,25.5910,-80.0970,43.9,7.7,60.0,8.8,'1111122,1111122,1111122' 
NDBC,ioos:station:NOAA.NDBC:FWYF1:1,2019-03-07T23:00:00Z,25.5910,-80.0970,43.9,8.2,50.0,8.8,'1111122,1111122,1111122' 
NDBC,ioos:station:NOAA.NDBC:FWYF1:1,2019-03-08T00:00:00Z,25.5910,-80.0970,43.9,7.7,70.0,8.8,'1111122,1111122,1111122' 
NDBC,ioos:station:NOAA.NDBC:FWYF1:1,2019-03-08T01:00:00Z,25.5910,-80.0970,43.9,7.7,70.0,8.8,'1111122,1111122,1111122' 
NDBC,ioos:station:NOAA.NDBC:FWYF1:1,2019-03-08T03:00:00Z,25.5910,-80.0970,43.9,7.7,80.0,8.8,'1111122,1111122,1111122' 
NDBC,ioos:station:NOAA.NDBC:FWYF1:1,2019-03-08T04:00:00Z,25.5910,-80.0970,43.9,6.7,70.0,7.2,'1111122,1111122,1111122' 
NDBC,ioos:station:NOAA.NDBC:FWYF1:1,2019-03-08T05:00:00Z,25.5910,-80.0970,43.9,6.7,90.0,7.7,'1111122,1111122,1111122' 
NDBC,ioos:station:NOAA.NDBC:FWYF1:1,2019-03-08T06:00:00Z,25.5910,-80.0970,43.9,7.2,100.0,8.2,'1111122,1111122,1111122' 
NDBC,ioos:station:NOAA.NDBC:FWYF1:1,2019-03-08T07:00:00Z,25.5910,-80.0970,43.9,6.2,110.0,6.7,'1111122,1111122,1111122' 
NDBC,ioos:station:NOAA.NDBC:FWYF1:1,2019-03-08T08:00:00Z,25.5910,-80.0970,43.9,7.7,100.0,8.2,'1111122,1111122,1111122' 
NDBC,ioos:station:NOAA.NDBC:FWYF1:1,2019-03-08T09:00:00Z,25.5910,-80.0970,43.9,7.2,80.0,8.2,'1111122,1111122,1111122' 
NDBC,ioos:station:NOAA.NDBC:FWYF1:1,2019-03-08T10:00:00Z,25.5910,-80.0970,43.9,8.2,90.0,9.3,'1111122,1111122,1111122' 
NDBC,ioos:station:NOAA.NDBC:FWYF1:1,2019-03-08T11:00:00Z,25.5910,-80.0970,43.9,8.2,90.0,8.2,'1111122,1111122,1111122' 
NDBC,ioos:station:NOAA.NDBC:FWYF1:1,2019-03-08T12:00:00Z,25.5910,-80.0970,43.9,7.2,70.0,8.2,'1111122,1111122,1111122' 
NDBC,ioos:station:NOAA.NDBC:FWYF1:1,2019-03-08T13:00:00Z,25.5910,-80.0970,43.9,7.7,80.0,9.3,'1111122,1111122,1111122' 
NDBC,ioos:station:NOAA.NDBC:FWYF1:1,2019-03-08T16:00:00Z,25.5910,-80.0970,43.9,10.3,90.0,11.3,'1111122,1111122,1111122' 
NDBC,ioos:station:NOAA.NDBC:FWYF1:1,2019-03-08T17:00:00Z,25.5910,-80.0970,43.9,9.3,80.0,9.8,'1111122,1111122,1111122' 
NDBC,ioos:station:NOAA.NDBC:FWYF1:1,2019-03-08T18:00:00Z,25.5910,-80.0970,43.9,9.3,90.0,10.3,'1111122,1111122,1111122' 
NDBC,ioos:station:NOAA.NDBC:FWYF1:1,2019-03-08T20:00:00Z,25.5910,-80.0970,43.9,8.2,80.0,8.8,'1111122,1111122,1111122' 
NDBC,ioos:station:NOAA.NDBC:FWYF1:1,2019-03-08T21:00:00Z,25.5910,-80.0970,43.9,8.8,100.0,9.3,'1111122,1111122,1111122' 
NDBC,ioos:station:NOAA.NDBC:FWYF1:1,2019-03-08T22:00:00Z,25.5910,-80.0970,43.9,8.2,90.0,9.3,'1111122,1111122,1111122' 
NDBC,ioos:station:NOAA.NDBC:FWYF1:1,2019-03-08T23:00:00Z,25.5910,-80.0970,43.9,7.7,90.0,8.8,'1111122,1111122,1111122' 
NDBC,ioos:station:NOAA.NDBC:FWYF1:1,2019-03-09T00:00:00Z,25.5910,-80.0970,43.9,7.2,90.0,7.7,'1111122,1111122,1111122' 
NDBC,ioos:station:NOAA.NDBC:FWYF1:1,2019-03-09T02:00:00Z,25.5910,-80.0970,43.9,8.8,100.0,9.8,'1111122,1111122,1111122' 
NDBC,ioos:station:NOAA.NDBC:FWYF1:1,2019-03-09T03:00:00Z,25.5910,-80.0970,43.9,8.2,90.0,9.3,'1111122,1111122,1111122' 
NDBC,ioos:station:NOAA.NDBC:FWYF1:1,2019-03-09T04:00:00Z,25.5910,-80.0970,43.9,9.3,90.0,9.8,'1111122,1111122,1111122' 
NDBC,ioos:station:NOAA.NDBC:FWYF1:1,2019-03-09T05:00:00Z,25.5910,-80.0970,43.9,9.8,90.0,9.8,'1111122,1111122,1111122' 
NDBC,ioos:station:NOAA.NDBC:FWYF1:1,2019-03-09T06:00:00Z,25.5910,-80.0970,43.9,9.8,100.0,10.8,'1111122,1111122,1111122' 
NDBC,ioos:station:NOAA.NDBC:FWYF1:1,2019-03-09T07:00:00Z,25.5910,-80.0970,43.9,9.3,100.0,9.8,'1111122,1111122,1111122' 
NDBC,ioos:station:NOAA.NDBC:FWYF1:1,2019-03-09T08:00:00Z,25.5910,-80.0970,43.9,6.7,100.0,7.7,'1111122,1111122,1111122' 
NDBC,ioos:station:NOAA.NDBC:FWYF1:1,2019-03-09T09:00:00Z,25.5910,-80.0970,43.9,7.2,110.0,7.7,'1111122,1111122,1111122' 
NDBC,ioos:station:NOAA.NDBC:FWYF1:1,2019-03-09T10:00:00Z,25.5910,-80.0970,43.9,6.2,120.0,7.2,'1111122,1111122,1111122' 
NDBC,ioos:station:NOAA.NDBC:FWYF1:1,2019-03-09T11:00:00Z,25.5910,-80.0970,43.9,7.7,120.0,8.2,'1111122,1111122,1111122' 
NDBC,ioos:station:NOAA.NDBC:FWYF1:1,2019-03-09T12:00:00Z,25.5910,-80.0970,43.9,7.2,110.0,8.8,'1111122,1111122,1111122' 
NDBC,ioos:station:NOAA.NDBC:FWYF1:1,2019-03-09T13:00:00Z,25.5910,-80.0970,43.9,7.7,110.0,8.2,'1111122,1111122,1111122' 
NDBC,ioos:station:NOAA.NDBC:FWYF1:1,2019-03-09T14:00:00Z,25.5910,-80.0970,43.9,8.2,120.0,8.8,'1111122,1111122,1111122' 
NDBC,ioos:station:NOAA.NDBC:FWYF1:1,2019-03-09T15:00:00Z,25.5910,-80.0970,43.9,7.7,100.0,9.3,'1111122,1111122,1111122' 
NDBC,ioos:station:NOAA.NDBC:FWYF1:1,2019-03-09T16:00:00Z,25.5910,-80.0970,43.9,7.7,100.0,8.2,'1111122,1111122,1111122' 
NDBC,ioos:station:NOAA.NDBC:FWYF1:1,2019-03-09T18:00:00Z,25.5910,-80.0970,43.9,8.2,100.0,8.8,'1111122,1111122,1111122' 
NDBC,ioos:station:NOAA.NDBC:FWYF1:1,2019-03-09T19:00:00Z,25.5910,-80.0970,43.9,8.2,100.0,8.8,'1111122,1111122,1111122' 
NDBC,ioos:station:NOAA.NDBC:FWYF1:1,2019-03-09T20:00:00Z,25.5910,-80.0970,43.9,8.2,110.0,8.8,'1111122,1111122,1111122' 
NDBC,ioos:station:NOAA.NDBC:FWYF1:1,2019-03-09T22:00:00Z,25.5910,-80.0970,43.9,8.2,100.0,8.8,'1111122,1111122,1111122' 
NDBC,ioos:station:NOAA.NDBC:FWYF1:1,2019-03-09T23:00:00Z,25.5910,-80.0970,43.9,8.2,100.0,8.8,'1111122,1111122,1111122' 
NDBC,ioos:station:NOAA.NDBC:FWYF1:1,2019-03-10T00:00:00Z,25.5910,-80.0970,43.9,9.3,100.0,9.8,'1111122,1111122,1111122' 
NDBC,ioos:station:NOAA.NDBC:FWYF1:1,2019-03-10T01:00:00Z,25.5910,-80.0970,43.9,10.3,90.0,11.8,'1111122,1111122,1111122' 
NDBC,ioos:station:NOAA.NDBC:FWYF1:1,2019-03-10T02:00:00Z,25.5910,-80.0970,43.9,9.8,100.0,10.8,'1111122,1111122,1111122' 
NDBC,ioos:station:NOAA.NDBC:FWYF1:1,2019-03-10T03:00:00Z,25.5910,-80.0970,43.9,10.8,90.0,11.8,'1111122,1111122,1111122' 
NDBC,ioos:station:NOAA.NDBC:FWYF1:1,2019-03-10T04:00:00Z,25.5910,-80.0970,43.9,10.3,100.0,10.8,'1111122,1111122,1111122' 
NDBC,ioos:station:NOAA.NDBC:FWYF1:1,2019-03-10T05:00:00Z,25.5910,-80.0970,43.9,10.3,110.0,11.3,'1111122,1111122,1111122' 
NDBC,ioos:station:NOAA.NDBC:FWYF1:1,2019-03-10T07:00:00Z,25.5910,-80.0970,43.9,9.8,120.0,10.3,'1111122,1111122,1111122' 
NDBC,ioos:station:NOAA.NDBC:FWYF1:1,2019-03-10T08:00:00Z,25.5910,-80.0970,43.9,8.8,100.0,9.8,'1111122,1111122,1111122' 
NDBC,ioos:station:NOAA.NDBC:FWYF1:1,2019-03-10T09:00:00Z,25.5910,-80.0970,43.9,10.8,120.0,11.3,'1111122,1111122,1111122' 
NDBC,ioos:station:NOAA.NDBC:FWYF1:1,2019-03-10T10:00:00Z,25.5910,-80.0970,43.9,11.3,130.0,12.4,'1111122,1111122,1111122' 
NDBC,ioos:station:NOAA.NDBC:FWYF1:1,2019-03-10T11:00:00Z,25.5910,-80.0970,43.9,10.3,130.0,10.8,'1111122,1111122,1111122' 
NDBC,ioos:station:NOAA.NDBC:FWYF1:1,2019-03-10T12:00:00Z,25.5910,-80.0970,43.9,8.8,130.0,9.8,'1111122,1111122,1111122' 
NDBC,ioos:station:NOAA.NDBC:FWYF1:1,2019-03-10T13:00:00Z,25.5910,-80.0970,43.9,8.8,130.0,9.8,'1111122,1111122,1111122' 
NDBC,ioos:station:NOAA.NDBC:FWYF1:1,2019-03-10T14:00:00Z,25.5910,-80.0970,43.9,8.2,130.0,8.8,'1111122,1111122,1111122' 
NDBC,ioos:station:NOAA.NDBC:FWYF1:1,2019-03-10T15:00:00Z,25.5910,-80.0970,43.9,7.7,130.0,8.2,'1111122,1111122,1111122' 
NDBC,ioos:station:NOAA.NDBC:FWYF1:1,2019-03-10T17:00:00Z,25.5910,-80.0970,43.9,6.2,100.0,6.7,'1111122,1111122,1111122' 
NDBC,ioos:station:NOAA.NDBC:FWYF1:1,2019-03-10T18:00:00Z,25.5910,-80.0970,43.9,5.1,100.0,5.7,'1111122,1111122,1111122' 
NDBC,ioos:station:NOAA.NDBC:FWYF1:1,2019-03-10T19:00:00Z,25.5910,-80.0970,43.9,6.2,110.0,6.7,'1111122,1111122,1111122' 